[[{"header":{"parameterUnit":"m.s-1","parameterCategory":2,"la1":30.2991,"la2":30.254,"lo1":-89.0895,"lo2":-89.0444,"dy":0.0017,"dx":0.0017,"nx":28,"ny":28,"refTime":"2024-06-30T09:00:00:Z","depth":"0","parameterNumber":2,"parameterNumberName":"U-component_of_CURRENTS"},"data":[0,0,0,0,0,0,0,0,0,0,0,0,0,0,0,0,0,0,0,0,0,0,0,0,0,0,0,0,0,0,0,0,0,0,0,0,0,0,0,0,0,0,0,0,0,0,0,0,0,0,0,0,0,0,0,0,0,0,0.0661,0.0662,0,0.0681,0.0681,0.0682,0.0675,0.0675,0.0674,0.0674,0.0647,0.0647,0.0646,0,0,0,0,0,0,0,0,0,0,0,0,0,0.0617,0.0618,0.0661,0.0662,0.0662,0.0681,0.0681,0.0682,0.0675,0.0675,0.0674,0.0674,0.0647,0.0647,0.0646,0,0,0,0,0,0,0,0,0,0,0,0,0,0.0636,0.0618,0.0661,0.0661,0.0661,0.0681,0.0681,0.0682,0.0675,0.0675,0.0674,0.0674,0.0647,0.0647,0.0646,0.0655,0,0,0.0645,0.0644,0,0,0,0,0,0,0,0,0.0635,0.0638,0.0661,0.0661,0.0662,0.0675,0.0656,0.0671,0.0676,0.067,0.0674,0.0673,0.0653,0.0652,0.0657,0.0654,0.0653,0.0644,0.0644,0.0644,0.0644,0,0,0,0,0,0,0,0.0634,0.0637,0.0669,0.0661,0.0662,0.066,0.0662,0.0659,0.0663,0.067,0.067,0.0673,0.0652,0.0658,0.0656,0.0652,0.0644,0.0644,0.0644,0.0644,0.0677,0.0678,0,0,0,0,0,0,0.0633,0.0636,0.0668,0.067,0.0647,0.0661,0.0663,0.0671,0.0664,0.0663,0.0673,0.0672,0.0659,0.0657,0.0655,0.0702,0.0644,0.0643,0.0643,0.0676,0.0678,0.0679,0,0,0,0,0,0,0.0632,0.0636,0.0668,0.0653,0.0657,0.0663,0.0672,0.0672,0.0679,0.0667,0.0665,0.0679,0.0658,0.0656,0.0665,0.0699,0.0643,0.0643,0.0675,0.0677,0.0678,0.0772,0,0,0,0,0,0,0.0631,0.0636,0.064,0.0653,0.0658,0.0685,0.0672,0.0673,0.0681,0.068,0.0672,0.0668,0.0658,0.0666,0.0664,0.0698,0.0642,0.0673,0.0675,0.0678,0.0768,0.0777,0.0785,0,0,0,0,0,0.0629,0.0635,0.064,0.0644,0.0664,0.0686,0.0688,0.0689,0.0682,0.0692,0.069,0.0669,0.0679,0.0667,0.0664,0.0699,0.0672,0.0675,0.0677,0.0764,0.0775,0.0785,0,0,0,0,0,0,0.0606,0.0636,0.0641,0.0653,0.0672,0.0685,0.069,0.0694,0.0701,0.0697,0.0684,0.0681,0.0702,0.0684,0.0671,0.0714,0.0672,0.0675,0.0739,0.0749,0.0758,0.0786,0.0642,0,0,0,0,0,0.0607,0.0625,0.0649,0.0657,0.0669,0.0682,0.069,0.0696,0.0703,0.0706,0.0702,0.07,0.0713,0.0717,0.0715,0.0739,0.0766,0.0758,0.0767,0.0775,0.0796,0.0869,0.0887,0.0688,0.0688,0.0688,0,0,0.0595,0.0617,0.0623,0.0655,0.0668,0.0697,0.0685,0.0702,0.073,0.0701,0.0728,0.0727,0.0723,0.0754,0.0762,0.0744,0.0848,0.0778,0.0785,0.0803,0.0874,0.0893,0.0911,0.069,0.0689,0.0689,0,0,0.0593,0.0606,0.0629,0.0653,0.0684,0.0701,0.0709,0.0732,0.0745,0.0771,0.0767,0.0795,0.079,0.082,0.0828,0.0883,0.0889,0.087,0.0946,0.1016,0.1033,0.1049,0.1126,0.1148,0.0879,0.088,0.088,0,0.0573,0.062,0.0635,0.0669,0.0697,0.0707,0.0744,0.0762,0.0784,0.0816,0.0785,0.0844,0.0831,0.0911,0.0928,0.0908,0.0947,0.0908,0.1031,0.1047,0.1061,0.1136,0.1159,0.0885,0.0884,0.0883,0.0883,0,0.0602,0.064,0.0654,0.071,0.0737,0.077,0.0804,0.0834,0.0847,0.0875,0.0943,0.0946,0.0991,0.0988,0.0972,0.1078,0.1072,0.1033,0.1011,0.1088,0.1161,0.1183,0.0891,0.089,0.0888,0.0887,0,0,0.0567,0.0658,0.0666,0.0718,0.077,0.0803,0.0852,0.0924,0.0988,0.1001,0.1094,0.1115,0.1132,0.1144,0.1143,0.1198,0.133,0.1164,0.1165,0.1253,0.1504,0.1612,0.1646,0.1314,0.1318,0.1321,0.152,0,0.0593,0.0677,0.0713,0.0797,0.0853,0.0889,0.0949,0.1009,0.1055,0.114,0.1174,0.1245,0.1188,0.1229,0.1279,0.1316,0.1391,0.1281,0.1405,0.1409,0.1506,0.1676,0.1826,0.2026,0.1542,0.1546,0.1548,0,0.0633,0.069,0.0779,0.0893,0.0919,0.0966,0.1089,0.1144,0.1252,0.129,0.1366,0.1389,0.1489,0.1416,0.155,0.1483,0.1511,0.153,0.1537,0.1623,0.156,0.1865,0.2085,0.2108,0.1583,0.158,0.1578,0,0.0656,0.075,0.0832,0.0865,0.0976,0.1031,0.1093,0.1198,0.1277,0.1402,0.1475,0.1569,0.1645,0.1689,0.1725,0.165,0.1875,0.1771,0.1902,0.1909,0.2057,0.2071,0.2329,0.1887,0.1887,0.1886,0.1886,0,0.0707,0.0776,0.0853,0.0905,0.1014,0.1075,0.1206,0.1275,0.1402,0.1523,0.1564,0.1685,0.1717,0.183,0.1822,0.1977,0.1963,0.1982,0.1996,0.2094,0.2109,0.2145,0.204,0.1894,0.1892,0.1891,0.1889,0,0.0751,0.0797,0.0894,0.0998,0.1037,0.1117,0.1261,0.1356,0.1468,0.1628,0.1677,0.1819,0.1987,0.2037,0.2148,0.2143,0.2227,0.2284,0.2408,0.2435,0.2555,0.2446,0.245,0.2362,0.2479,0.2483,0.2487,0,0.0793,0.0846,0.0947,0.0994,0.1047,0.1164,0.125,0.1377,0.1477,0.1714,0.1798,0.2015,0.2178,0.2419,0.2511,0.2625,0.2426,0.2772,0.2654,0.2666,0.2552,0.2262,0.216,0.2886,0.2893,0.2898,0.2902,0,0.0859,0.0882,0.0943,0.1033,0.1116,0.1224,0.1353,0.1444,0.1612,0.1764,0.1994,0.2156,0.2469,0.2718,0.2895,0.2936,0.2711,0.2885,0.2884,0.2918,0.2633,0.2522,0.2627,0.295,0.2946,0.2942,0.2939,0.2937,0.0885,0.0925,0.0981,0.1067,0.115,0.1262,0.1353,0.1512,0.1693,0.1941,0.2101,0.2394,0.2808,0.3124,0.3176,0.3401,0.3042,0.3362,0.3239,0.295,0.2846,0.3069,0.3399,0.3397,0.3395,0.3394,0.3392,0,0.0905,0.0941,0.1015,0.11,0.1165,0.1231,0.1398,0.1495,0.1701,0.2004,0.2237,0.2778,0.3165,0.3453,0.3844,0.3814,0.3519,0.3689,0.3354,0.3236,0.3525,0.3535,0.3928,0.3928,0.3928,0.3928,0.3928,0.3928,0.0915,0.096,0.0993,0.1078,0.1142,0.1237,0.1325,0.1508,0.1725,0.2138,0.2491,0.2761,0.3299,0.3867,0.4137,0.4053,0.3692,0.3568,0.3312,0.3623,0.3581,0.3542,0.3537,0.3925,0.3924,0.3019,0.3013,0.3008]},{"header":{"parameterUnit":"m.s-1","parameterCategory":2,"la1":30.2991,"la2":30.254,"lo1":-89.0895,"lo2":-89.0444,"dy":0.0017,"dx":0.0017,"nx":28,"ny":28,"refTime":"2024-06-30T09:00:00:Z","depth":"0","parameterNumber":3,"parameterNumberName":"V-component_of_CURRENTS"},"data":[0,0,0,0,0,0,0,0,0,0,0,0,0,0,0,0,0,0,0,0,0,0,0,0,0,0,0,0,0,0,0,0,0,0,0,0,0,0,0,0,0,0,0,0,0,0,0,0,0,0,0,0,0,0,0,0,0,0,-0.0647,-0.0648,0,-0.0762,-0.0763,-0.0765,-0.084,-0.0841,-0.0841,-0.0841,-0.0957,-0.096,-0.0963,0,0,0,0,0,0,0,0,0,0,0,0,0,-0.0541,-0.0542,-0.0647,-0.0648,-0.0649,-0.0762,-0.0764,-0.0765,-0.084,-0.0841,-0.0841,-0.0842,-0.0956,-0.0959,-0.0963,0,0,0,0,0,0,0,0,0,0,0,0,0,-0.0616,-0.0543,-0.0646,-0.0699,-0.0705,-0.0761,-0.0764,-0.0766,-0.084,-0.0841,-0.0841,-0.0842,-0.0955,-0.0959,-0.0963,-0.0979,0,0,-0.0976,-0.0978,0,0,0,0,0,0,0,0,-0.0612,-0.062,-0.069,-0.0695,-0.0702,-0.0786,-0.0769,-0.0837,-0.084,-0.0791,-0.0841,-0.0842,-0.0898,-0.0907,-0.093,-0.0985,-0.099,-0.0976,-0.0979,-0.0981,-0.0982,0,0,0,0,0,0,0,-0.0606,-0.0616,-0.0694,-0.0691,-0.0698,-0.0734,-0.0745,-0.0782,-0.0842,-0.0795,-0.08,-0.081,-0.0902,-0.0926,-0.0934,-0.0991,-0.0976,-0.098,-0.0983,-0.0984,-0.1073,-0.1073,0,0,0,0,0,0,-0.0586,-0.0611,-0.069,-0.0697,-0.0655,-0.0735,-0.0747,-0.076,-0.0841,-0.0854,-0.081,-0.0813,-0.0919,-0.0929,-0.0938,-0.0969,-0.0981,-0.0985,-0.0987,-0.1073,-0.1073,-0.1073,0,0,0,0,0,0,-0.0583,-0.0592,-0.0686,-0.0655,-0.0669,-0.0735,-0.0749,-0.0762,-0.0792,-0.0852,-0.0865,-0.0827,-0.092,-0.0932,-0.0987,-0.0974,-0.0986,-0.099,-0.1073,-0.1073,-0.1073,-0.1027,0,0,0,0,0,0,-0.0579,-0.059,-0.0597,-0.0654,-0.067,-0.0718,-0.0749,-0.0764,-0.0796,-0.0802,-0.0871,-0.0882,-0.0921,-0.098,-0.0991,-0.098,-0.0993,-0.1074,-0.1073,-0.1073,-0.1028,-0.1025,-0.1022,0,0,0,0,0,-0.0575,-0.0581,-0.0596,-0.0606,-0.0675,-0.0718,-0.073,-0.078,-0.0796,-0.0809,-0.0864,-0.0881,-0.0985,-0.0984,-0.0997,-0.0986,-0.1074,-0.1073,-0.1073,-0.103,-0.1026,-0.1022,0,0,0,0,0,0,-0.0542,-0.059,-0.0609,-0.063,-0.0669,-0.073,-0.0747,-0.0777,-0.0831,-0.0838,-0.0894,-0.0909,-0.0947,-0.0975,-0.0973,-0.101,-0.1026,-0.1028,-0.0988,-0.0985,-0.0982,-0.0945,-0.0997,0,0,0,0,0,-0.0535,-0.0552,-0.0601,-0.0618,-0.0633,-0.0688,-0.0713,-0.0745,-0.0796,-0.0821,-0.0868,-0.0915,-0.0954,-0.0978,-0.1017,-0.1046,-0.1066,-0.1042,-0.1039,-0.1036,-0.1014,-0.1045,-0.1043,-0.1072,-0.1072,-0.1072,0,0,-0.0526,-0.0556,-0.0565,-0.0612,-0.0646,-0.0663,-0.0705,-0.0738,-0.0754,-0.0823,-0.0862,-0.0909,-0.096,-0.0993,-0.101,-0.1017,-0.1042,-0.1036,-0.1033,-0.1012,-0.1045,-0.1042,-0.1039,-0.1072,-0.1072,-0.1072,0,0,-0.0508,-0.0542,-0.0543,-0.057,-0.0614,-0.065,-0.0655,-0.0713,-0.0741,-0.0784,-0.0833,-0.0874,-0.0938,-0.0971,-0.0994,-0.0995,-0.1024,-0.1004,-0.0959,-0.099,-0.0988,-0.0986,-0.1019,-0.1021,-0.1001,-0.1001,-0.1001,0,-0.0492,-0.0501,-0.0551,-0.0556,-0.0569,-0.0636,-0.0632,-0.0675,-0.0745,-0.0755,-0.0787,-0.0868,-0.092,-0.0947,-0.0953,-0.0985,-0.1009,-0.0971,-0.0985,-0.0984,-0.0982,-0.1017,-0.1019,-0.0998,-0.0999,-0.0999,-0.0999,0,-0.047,-0.0478,-0.048,-0.0506,-0.0531,-0.0541,-0.0594,-0.0622,-0.0662,-0.0698,-0.0735,-0.0813,-0.0852,-0.0878,-0.0922,-0.0932,-0.0955,-0.0979,-0.0992,-0.0976,-0.1014,-0.1017,-0.0995,-0.0996,-0.0997,-0.0997,0,0,-0.0419,-0.0454,-0.0452,-0.0442,-0.0499,-0.0508,-0.0536,-0.0566,-0.0564,-0.0638,-0.0635,-0.072,-0.0755,-0.0783,-0.084,-0.0873,-0.0905,-0.0918,-0.0921,-0.0944,-0.0975,-0.1017,-0.1025,-0.0934,-0.0934,-0.0934,-0.101,0,-0.0377,-0.0362,-0.0398,-0.0379,-0.0368,-0.0428,-0.0441,-0.0481,-0.0524,-0.0545,-0.0618,-0.0647,-0.0721,-0.0738,-0.0784,-0.0876,-0.0908,-0.0882,-0.0991,-0.0994,-0.1028,-0.1028,-0.0981,-0.1046,-0.1013,-0.1013,-0.1014,0,-0.0328,-0.0324,-0.0294,-0.0292,-0.0291,-0.0297,-0.0308,-0.0329,-0.0385,-0.0416,-0.0463,-0.0528,-0.0597,-0.0655,-0.079,-0.0772,-0.0858,-0.093,-0.0935,-0.0985,-0.1041,-0.1055,-0.1053,-0.116,-0.1018,-0.1018,-0.1018,0,-0.0245,-0.024,-0.0208,-0.021,-0.0232,-0.0222,-0.0236,-0.0283,-0.0286,-0.0331,-0.034,-0.0433,-0.0482,-0.0597,-0.0769,-0.0776,-0.0915,-0.0946,-0.1058,-0.1063,-0.1047,-0.1051,-0.1151,-0.1014,-0.1014,-0.1013,-0.1013,0,-0.0174,-0.0142,-0.0162,-0.0142,-0.0097,-0.0138,-0.0105,-0.0132,-0.0164,-0.0161,-0.0262,-0.0285,-0.0469,-0.0585,-0.0731,-0.0912,-0.089,-0.1042,-0.1081,-0.1033,-0.1034,-0.1146,-0.1253,-0.1016,-0.1016,-0.1015,-0.1015,0,-0.0087,-0.0103,-0.0059,-0.0061,-0.0057,-0.0024,-0.0027,-0.0008,-0.0048,-0.0048,-0.006,-0.0181,-0.0336,-0.0527,-0.0726,-0.0865,-0.1112,-0.1091,-0.1027,-0.1058,-0.1265,-0.1372,-0.153,-0.1623,-0.1221,-0.1223,-0.1224,0,-0.0039,-0.0012,0.0007,0.0036,0.0038,0.007,0.0086,0.0053,0.0061,0.001,0.0012,-0.0121,-0.0212,-0.0524,-0.0789,-0.1039,-0.1166,-0.1156,-0.1161,-0.1265,-0.1413,-0.1461,-0.1531,-0.1127,-0.1128,-0.1128,-0.1128,0,0.0051,0.005,0.0076,0.0127,0.0157,0.0198,0.0213,0.0232,0.0189,0.0187,0.0145,0.008,-0.0227,-0.0458,-0.08,-0.0987,-0.125,-0.117,-0.1285,-0.1354,-0.1404,-0.1514,-0.1098,-0.113,-0.113,-0.113,-0.113,-0.113,0.0113,0.0148,0.0172,0.0224,0.0266,0.0319,0.0365,0.0372,0.0398,0.0421,0.0304,0.0303,-0.0043,-0.0512,-0.0846,-0.1277,-0.1319,-0.1349,-0.1472,-0.151,-0.1594,-0.1192,-0.127,-0.1271,-0.1271,-0.1271,-0.1272,0,0.0187,0.0216,0.027,0.0332,0.0399,0.0395,0.0449,0.0508,0.0562,0.0607,0.0595,0.0542,0.0084,-0.0382,-0.0999,-0.1419,-0.1594,-0.1637,-0.167,-0.1733,-0.1358,-0.1345,-0.1433,-0.1433,-0.1433,-0.1433,-0.1433,-0.1433,0.0227,0.0285,0.0307,0.0432,0.0486,0.0583,0.0625,0.0715,0.0792,0.0961,0.1071,0.1102,0.088,-0.039,-0.1301,-0.1618,-0.1895,-0.2,-0.2171,-0.1876,-0.1856,-0.1837,-0.1845,-0.2036,-0.2037,-0.2432,-0.2437,-0.244]}],[{"header":{"parameterUnit":"m.s-1","parameterCategory":2,"la1":30.2991,"la2":30.254,"lo1":-89.0895,"lo2":-89.0444,"dy":0.0017,"dx":0.0017,"nx":28,"ny":28,"refTime":"2024-06-30T09:00:00:Z","depth":"2","parameterNumber":2,"parameterNumberName":"U-component_of_CURRENTS"},"data":[0,0,0,0,0,0,0,0,0,0,0,0,0,0,0,0,0,0,0,0,0,0,0,0,0,0,0,0,0,0,0,0,0,0,0,0,0,0,0,0,0,0,0,0,0,0,0,0,0,0,0,0,0,0,0,0,0,0,0.1983,0.1983,0,0.1983,0.1983,0.1983,0.1922,0.1921,0.1919,0.1918,0.1884,0.1884,0.1885,0,0,0,0,0,0,0,0,0,0,0,0,0,0.1938,0.1939,0.1983,0.1983,0.1983,0.1983,0.1983,0.1983,0.1922,0.1921,0.1919,0.1917,0.1884,0.1884,0.1885,0,0,0,0,0,0,0,0,0,0,0,0,0,0.1949,0.194,0.1983,0.1954,0.1951,0.1983,0.1983,0.1983,0.1923,0.1921,0.1918,0.1916,0.1883,0.1884,0.1885,0.1934,0,0,0.1887,0.1887,0,0,0,0,0,0,0,0,0.1948,0.195,0.1958,0.1956,0.1953,0.1952,0.1955,0.1965,0.1923,0.1932,0.1918,0.1915,0.1906,0.1905,0.1908,0.1932,0.1931,0.1887,0.1888,0.1888,0.1888,0,0,0,0,0,0,0,0.1948,0.195,0.1982,0.1958,0.1956,0.1944,0.1943,0.1957,0.193,0.1931,0.1927,0.193,0.1904,0.1908,0.1907,0.193,0.1887,0.1888,0.1888,0.1888,0.2,0.2002,0,0,0,0,0,0,0.1953,0.195,0.1982,0.1982,0.1947,0.1947,0.1945,0.1953,0.193,0.1925,0.1932,0.1927,0.1907,0.1906,0.1905,0.196,0.1888,0.1888,0.1889,0.1997,0.2,0.2003,0,0,0,0,0,0,0.1952,0.1956,0.1982,0.1966,0.1969,0.195,0.1959,0.1954,0.194,0.1932,0.1925,0.192,0.1906,0.1904,0.1932,0.1958,0.1889,0.1889,0.1994,0.1998,0.2002,0.2071,0,0,0,0,0,0,0.1951,0.1956,0.1958,0.1967,0.197,0.1997,0.1961,0.1956,0.1947,0.194,0.192,0.1915,0.1904,0.1931,0.1932,0.1958,0.189,0.1991,0.1996,0.2,0.2066,0.2077,0.2086,0,0,0,0,0,0.1949,0.1962,0.1958,0.1961,0.1975,0.1998,0.1999,0.1976,0.1949,0.1952,0.1953,0.1915,0.1961,0.1934,0.1935,0.1961,0.1989,0.1994,0.2,0.2061,0.2075,0.2086,0,0,0,0,0,0,0.1928,0.1958,0.1953,0.1969,0.1982,0.1988,0.1988,0.1976,0.198,0.1965,0.1951,0.1949,0.1985,0.1972,0.1942,0.2011,0.1968,0.1974,0.2014,0.2027,0.2037,0.2045,0.1891,0,0,0,0,0,0.1932,0.1955,0.1973,0.1984,0.1992,0.199,0.1992,0.198,0.1987,0.1983,0.197,0.1976,0.2016,0.2017,0.2036,0.2073,0.2101,0.2092,0.2102,0.211,0.2121,0.221,0.223,0.2022,0.2022,0.2021,0,0,0.1919,0.1945,0.1949,0.1982,0.1987,0.2012,0.1984,0.1989,0.2011,0.1983,0.1997,0.201,0.2037,0.2083,0.2096,0.2069,0.2189,0.2118,0.2125,0.2131,0.2218,0.2239,0.2257,0.2025,0.2025,0.2024,0,0,0.1918,0.1936,0.1953,0.1979,0.1999,0.2013,0.2015,0.2018,0.202,0.2051,0.2051,0.209,0.2106,0.2149,0.2175,0.2259,0.2246,0.2248,0.2298,0.2385,0.2403,0.2418,0.2494,0.2516,0.2246,0.2246,0.2246,0,0.1891,0.1932,0.1958,0.199,0.2014,0.2017,0.204,0.2063,0.2071,0.2095,0.2058,0.2145,0.2151,0.2259,0.2282,0.2282,0.2319,0.2244,0.2398,0.2415,0.243,0.2503,0.2526,0.225,0.225,0.2249,0.2249,0,0.1913,0.1945,0.196,0.2013,0.2043,0.2064,0.2106,0.2125,0.2123,0.2148,0.2223,0.2253,0.2302,0.2319,0.2322,0.244,0.2429,0.2406,0.2363,0.2455,0.2526,0.2549,0.2256,0.2254,0.2253,0.2252,0,0,0.1842,0.195,0.1952,0.199,0.2057,0.2082,0.2144,0.2209,0.2257,0.2273,0.2346,0.242,0.242,0.2452,0.2468,0.2538,0.2676,0.251,0.2512,0.2578,0.2866,0.2866,0.289,0.2673,0.2677,0.2681,0.2877,0,0.1839,0.1914,0.197,0.2034,0.2076,0.2129,0.2194,0.2257,0.2306,0.2378,0.2441,0.251,0.248,0.2506,0.2579,0.2654,0.2738,0.2625,0.2772,0.2777,0.2761,0.2918,0.2442,0.2577,0.2899,0.2903,0.2906,0,0.1836,0.1897,0.1961,0.2073,0.2092,0.213,0.224,0.2303,0.2426,0.2465,0.2549,0.2587,0.271,0.2658,0.2844,0.2769,0.2826,0.2877,0.2885,0.2876,0.2821,0.2537,0.2607,0.2944,0.2941,0.2938,0.2936,0,0.1795,0.1889,0.1945,0.1981,0.2102,0.2136,0.2196,0.2315,0.2385,0.2525,0.2582,0.2716,0.2786,0.2887,0.2974,0.2918,0.3176,0.3111,0.3177,0.3177,0.2798,0.2758,0.3262,0.3262,0.3261,0.3261,0.326,0,0.1796,0.1836,0.1924,0.1962,0.2023,0.2113,0.2197,0.228,0.2413,0.2511,0.2614,0.2716,0.2845,0.2985,0.3045,0.3202,0.324,0.3235,0.325,0.2812,0.2774,0.3095,0.3073,0.3268,0.3266,0.3265,0.3264,0,0.1763,0.1822,0.1885,0.1986,0.201,0.2054,0.2173,0.2246,0.2375,0.251,0.2555,0.275,0.2941,0.3079,0.3274,0.3302,0.344,0.3478,0.2963,0.2917,0.3361,0.3341,0.3587,0.3589,0.3591,0.3593,0.3594,0,0.1768,0.1795,0.1874,0.1898,0.1938,0.201,0.2066,0.2204,0.229,0.2525,0.2591,0.2819,0.2965,0.3272,0.33,0.3445,0.3542,0.316,0.2988,0.3417,0.3406,0.3382,0.336,0.2501,0.2494,0.2487,0.2482,0,0.1768,0.1775,0.1825,0.1861,0.1902,0.1969,0.2059,0.2118,0.2298,0.2425,0.2618,0.2754,0.2975,0.2916,0.3113,0.313,0.3098,0.3046,0.3627,0.2522,0.2418,0.2399,0.2407,0.2425,0.2431,0.2435,0.2438,0.2441,0.1747,0.1758,0.1793,0.1823,0.1857,0.1907,0.1952,0.2068,0.2194,0.2343,0.252,0.2571,0.2545,0.2615,0.2658,0.2682,0.2891,0.2726,0.2733,0.2751,0.262,0.2528,0.253,0.2536,0.2541,0.2546,0.255,0,0.1725,0.1727,0.1756,0.1785,0.1789,0.1827,0.1929,0.1966,0.2075,0.2155,0.2281,0.2001,0.1976,0.2048,0.194,0.206,0.1944,0.2044,0.1756,0.1809,0.1857,0.1672,0.1336,0.1335,0.1334,0.1333,0,0,0.1717,0.1715,0.1723,0.1703,0.1704,0.1705,0.1741,0.1813,0.1845,0.1797,0.1706,0.1804,0.1822,0.1476,0.1477,0.1392,0.1611,0.1359,0.2281,0.1978,0.2025,0.2158,0.1925,0,0,0,0,0]},{"header":{"parameterUnit":"m.s-1","parameterCategory":2,"la1":30.2991,"la2":30.254,"lo1":-89.0895,"lo2":-89.0444,"dy":0.0017,"dx":0.0017,"nx":28,"ny":28,"refTime":"2024-06-30T09:00:00:Z","depth":"2","parameterNumber":3,"parameterNumberName":"V-component_of_CURRENTS"},"data":[0,0,0,0,0,0,0,0,0,0,0,0,0,0,0,0,0,0,0,0,0,0,0,0,0,0,0,0,0,0,0,0,0,0,0,0,0,0,0,0,0,0,0,0,0,0,0,0,0,0,0,0,0,0,0,0,0,0,0.041,0.041,0,0.0352,0.0351,0.035,0.031,0.031,0.031,0.031,0.0184,0.0181,0.0178,0,0,0,0,0,0,0,0,0,0,0,0,0,0.0456,0.0455,0.041,0.041,0.0409,0.0352,0.0351,0.035,0.031,0.031,0.031,0.031,0.0185,0.0182,0.0178,0,0,0,0,0,0,0,0,0,0,0,0,0,0.0419,0.0455,0.041,0.0383,0.0381,0.0352,0.0351,0.035,0.0311,0.031,0.031,0.031,0.0187,0.0182,0.0177,0.0153,0,0,0.0163,0.0161,0,0,0,0,0,0,0,0,0.0422,0.0418,0.0388,0.0385,0.0382,0.0339,0.0321,0.0281,0.0311,0.0336,0.031,0.031,0.0231,0.0223,0.0211,0.0147,0.0142,0.0162,0.0159,0.0157,0.0156,0,0,0,0,0,0,0,0.0424,0.042,0.0386,0.0387,0.0384,0.0363,0.0358,0.0313,0.0283,0.0333,0.0331,0.0326,0.0229,0.0216,0.0208,0.014,0.0162,0.0158,0.0155,0.0153,0.0007,0.0006,0,0,0,0,0,0,0.0436,0.0422,0.0388,0.0384,0.0403,0.0363,0.0357,0.0352,0.0285,0.0275,0.0327,0.0325,0.0224,0.0213,0.0203,0.0166,0.0157,0.0153,0.015,0.0008,0.0007,0.0006,0,0,0,0,0,0,0.0437,0.0433,0.039,0.0403,0.0396,0.0363,0.0358,0.0351,0.0342,0.0281,0.027,0.0325,0.0224,0.021,0.0165,0.0161,0.0151,0.0146,0.001,0.0008,0.0007,0.0094,0,0,0,0,0,0,0.0439,0.0434,0.0437,0.0404,0.0396,0.0382,0.0358,0.035,0.034,0.0337,0.0275,0.0264,0.0222,0.0173,0.0161,0.0154,0.0143,0.0011,0.0009,0.0007,0.0092,0.0095,0.0098,0,0,0,0,0,0.0441,0.0451,0.0437,0.0433,0.04,0.0383,0.0377,0.0352,0.0341,0.0342,0.0296,0.0266,0.0151,0.0169,0.0155,0.0147,0.0012,0.0009,0.0007,0.0091,0.0095,0.0098,0,0,0,0,0,0,0.0482,0.0446,0.0431,0.0432,0.0412,0.0377,0.0376,0.0358,0.0324,0.032,0.0262,0.0246,0.0204,0.0158,0.0179,0.0094,0.0073,0.0067,0.0141,0.0144,0.0147,0.017,0.0139,0,0,0,0,0,0.049,0.0484,0.045,0.0454,0.0443,0.041,0.0401,0.0385,0.0351,0.0337,0.0289,0.0231,0.0182,0.0153,0.0102,0.0062,0.0024,0.0041,0.0044,0.0047,0.0053,-0.001,-0.0011,-0.0001,-0.0001,-0.0001,0,0,0.0509,0.0489,0.0486,0.0462,0.0442,0.0434,0.0404,0.0398,0.0391,0.0327,0.0297,0.0245,0.0174,0.013,0.0105,0.0093,0.0025,0.0044,0.0048,0.0052,-0.0013,-0.0013,-0.0014,-0.0003,-0.0003,-0.0002,0,0,0.0541,0.0523,0.0524,0.0509,0.0485,0.0463,0.0464,0.0427,0.0408,0.0378,0.0324,0.0275,0.0198,0.0148,0.0112,0.0098,0.0047,0.0071,0.0103,0.0043,0.0042,0.0041,0.0007,0.0003,0.0069,0.0069,0.0069,0,0.0563,0.0558,0.0525,0.0524,0.0517,0.0479,0.0483,0.046,0.0413,0.0396,0.0378,0.0265,0.0209,0.0152,0.0143,0.0109,0.0071,0.0105,0.0051,0.0048,0.0046,0.0011,0.0005,0.0073,0.0072,0.0072,0.0071,0,0.0587,0.0588,0.0591,0.057,0.0561,0.0561,0.0525,0.0509,0.0481,0.045,0.0395,0.0319,0.0249,0.0219,0.0178,0.0124,0.0104,0.007,0.0054,0.0051,0.0013,0.0006,0.0078,0.0077,0.0076,0.0075,0,0,0.0608,0.0607,0.0605,0.0609,0.0585,0.058,0.0571,0.0544,0.054,0.0482,0.0464,0.037,0.0326,0.028,0.0215,0.0162,0.0117,0.0112,0.0107,0.0102,-0.0002,0.0029,0.0023,0.0073,0.0071,0.007,-0.0014,0,0.063,0.0649,0.0637,0.0654,0.0656,0.0628,0.0625,0.0599,0.0569,0.0542,0.0461,0.0414,0.0348,0.0315,0.0252,0.0153,0.0096,0.0144,-0.0019,-0.0023,0.0022,0.0014,-0.0026,-0.01,-0.0022,-0.0023,-0.0024,0,0.0636,0.0652,0.0677,0.0693,0.0691,0.0695,0.0683,0.0678,0.0635,0.0612,0.0553,0.0489,0.0403,0.0348,0.0185,0.0218,0.0112,0.0037,0.0031,0.0024,-0.0008,-0.0093,-0.0118,-0.0038,-0.0037,-0.0036,-0.0035,0,0.0648,0.0671,0.0697,0.07,0.0712,0.0716,0.0717,0.0693,0.0699,0.065,0.0648,0.0536,0.0486,0.0342,0.0188,0.0176,0.0023,-0.0019,-0.009,-0.0089,-0.0172,-0.0175,-0.0143,-0.0143,-0.0143,-0.0143,-0.0143,0,0.0662,0.068,0.0706,0.0719,0.0754,0.0744,0.077,0.0759,0.0753,0.0775,0.068,0.0676,0.0478,0.0371,0.0216,0.0057,0.0035,-0.0079,-0.0111,-0.0141,-0.014,-0.0132,-0.0129,-0.0146,-0.0145,-0.0145,-0.0144,0,0.0671,0.0684,0.0722,0.0751,0.0761,0.0785,0.082,0.0843,0.0828,0.0855,0.0842,0.0767,0.0641,0.0451,0.0233,0.0107,-0.0058,-0.0118,-0.0117,-0.0146,-0.0137,-0.0129,-0.0205,-0.0205,-0.0204,-0.0204,-0.0204,0,0.068,0.0699,0.0753,0.0783,0.0799,0.0835,0.0866,0.0875,0.0911,0.0924,0.0948,0.0846,0.0819,0.0538,0.0274,0.0024,-0.0038,-0.0186,-0.0219,-0.0121,-0.0145,-0.0138,-0.0131,-0.0303,-0.0303,-0.0304,-0.0304,0,0.0712,0.073,0.0772,0.0834,0.0875,0.0931,0.0978,0.1017,0.1041,0.108,0.1123,0.1111,0.0868,0.0597,0.0263,0.0093,-0.0143,-0.02,-0.0135,-0.0255,-0.0213,-0.0236,-0.0227,-0.0309,-0.0308,-0.0308,-0.0308,-0.0308,0.0743,0.0784,0.084,0.0897,0.0951,0.1024,0.1077,0.114,0.1223,0.1295,0.1287,0.122,0.089,0.0447,0.0172,-0.0141,-0.0102,-0.0277,-0.0276,-0.0275,-0.0246,-0.0203,-0.0291,-0.029,-0.029,-0.0289,-0.0289,0,0.0782,0.0832,0.0897,0.0976,0.1045,0.1064,0.1155,0.1207,0.1319,0.1356,0.1424,0.1031,0.0771,0.0387,-0.0071,-0.0287,-0.0313,-0.0391,-0.0426,-0.0419,-0.0414,-0.0392,-0.0477,-0.0478,-0.0478,-0.0479,0,0,0.0807,0.0878,0.0915,0.1042,0.11,0.1197,0.1255,0.1329,0.1346,0.1338,0.1242,0.1249,0.0748,0.0347,0.0023,-0.0246,-0.0262,-0.0277,-0.0105,-0.01,-0.0091,-0.0331,-0.0287,0,0,0,0,0]}],[{"header":{"parameterUnit":"m.s-1","parameterCategory":2,"la1":30.2991,"la2":30.254,"lo1":-89.0895,"lo2":-89.0444,"dy":0.0017,"dx":0.0017,"nx":28,"ny":28,"refTime":"2024-06-30T09:00:00:Z","depth":"4","parameterNumber":2,"parameterNumberName":"U-component_of_CURRENTS"},"data":[0,0,0,0,0,0,0,0,0,0,0,0,0,0,0,0,0,0,0,0,0,0,0,0,0,0,0,0,0,0,0,0,0,0,0,0,0,0,0,0,0,0,0,0,0,0,0,0,0,0,0,0,0,0,0,0,0,0,0.0748,0.0749,0,0.0747,0.0746,0.0745,0.0816,0.0818,0.0821,0.0824,0.0947,0.0948,0.0949,0,0,0,0,0,0,0,0,0,0,0,0,0,0.0693,0.0693,0.0748,0.0749,0.075,0.0747,0.0746,0.0745,0.0815,0.0819,0.0822,0.0825,0.0947,0.0948,0.0949,0,0,0,0,0,0,0,0,0,0,0,0,0,0.0698,0.0693,0.0748,0.0791,0.0796,0.0747,0.0746,0.0745,0.0815,0.0819,0.0823,0.0827,0.0947,0.0948,0.0949,0.0874,0,0,0.0952,0.0953,0,0,0,0,0,0,0,0,0.0697,0.0699,0.0784,0.0788,0.0794,0.0794,0.0772,0.0797,0.0813,0.0797,0.0824,0.0829,0.0911,0.0915,0.089,0.0879,0.0885,0.0952,0.0953,0.0954,0.0954,0,0,0,0,0,0,0,0.0697,0.0698,0.0738,0.0785,0.0791,0.0771,0.0776,0.0775,0.0826,0.0799,0.0807,0.082,0.0914,0.0889,0.0894,0.0886,0.0952,0.0953,0.0954,0.0955,0.1064,0.1066,0,0,0,0,0,0,0.0718,0.0698,0.0738,0.0739,0.0765,0.077,0.0775,0.0782,0.0824,0.0836,0.0817,0.0824,0.0885,0.0893,0.0899,0.1009,0.0954,0.0955,0.0955,0.1062,0.1065,0.1067,0,0,0,0,0,0,0.0717,0.0721,0.0738,0.0727,0.0729,0.0769,0.0774,0.078,0.0823,0.0837,0.0851,0.0863,0.0888,0.0898,0.0966,0.1008,0.0955,0.0956,0.1059,0.1063,0.1066,0.1104,0,0,0,0,0,0,0.0715,0.072,0.0733,0.0728,0.0731,0.0762,0.0771,0.0777,0.0825,0.0836,0.088,0.0891,0.0892,0.0964,0.0967,0.1009,0.0957,0.1057,0.1061,0.1065,0.11,0.1108,0.1116,0,0,0,0,0,0.0712,0.0717,0.0734,0.074,0.0747,0.0764,0.0763,0.0797,0.0825,0.0848,0.0889,0.0894,0.0994,0.0966,0.0969,0.1012,0.1055,0.106,0.1065,0.1097,0.1107,0.1115,0,0,0,0,0,0,0.0703,0.0725,0.0744,0.0757,0.0786,0.0781,0.0799,0.0823,0.0862,0.0885,0.0906,0.0919,0.0998,0.0999,0.0968,0.1061,0.1031,0.1037,0.1054,0.1064,0.1072,0.1078,0.0958,0,0,0,0,0,0.0705,0.0718,0.0743,0.076,0.0776,0.0794,0.0808,0.0835,0.0866,0.0888,0.0932,0.0973,0.1001,0.1034,0.1059,0.1094,0.1088,0.1132,0.114,0.1146,0.1156,0.1154,0.1162,0.1084,0.1084,0.1084,0,0,0.0705,0.0722,0.073,0.076,0.0776,0.0801,0.0813,0.085,0.0884,0.0893,0.0972,0.1003,0.1019,0.1071,0.1107,0.109,0.1172,0.1152,0.1157,0.1165,0.116,0.1167,0.1174,0.1087,0.1087,0.1086,0,0,0.0716,0.0732,0.0753,0.0781,0.0828,0.0828,0.0859,0.0897,0.0934,0.101,0.1016,0.1075,0.1149,0.1143,0.1152,0.1215,0.1212,0.1248,0.1289,0.1287,0.1292,0.1297,0.1318,0.1324,0.1251,0.1251,0.1251,0,0.0729,0.0746,0.0764,0.08,0.0824,0.0855,0.0887,0.0909,0.0976,0.1014,0.1068,0.1167,0.1176,0.12,0.123,0.123,0.1244,0.1245,0.1293,0.1298,0.1302,0.1322,0.1328,0.1254,0.1253,0.1253,0.1253,0,0.0747,0.0781,0.0798,0.0846,0.0872,0.0903,0.0943,0.0994,0.1063,0.1106,0.1207,0.1229,0.1299,0.1304,0.1292,0.1323,0.133,0.1298,0.126,0.1311,0.133,0.1336,0.1257,0.1256,0.1255,0.1255,0,0,0.0739,0.0797,0.0814,0.0857,0.0899,0.0933,0.0976,0.1029,0.11,0.1192,0.1285,0.1326,0.1378,0.139,0.1378,0.1371,0.1405,0.1362,0.136,0.1367,0.1434,0.1316,0.1311,0.1387,0.1387,0.1388,0.1442,0,0.0758,0.082,0.084,0.0916,0.0948,0.0987,0.1049,0.1111,0.1177,0.1281,0.1316,0.1412,0.1396,0.1453,0.1444,0.1414,0.1421,0.1396,0.1398,0.1399,0.1272,0.1313,0.1391,0.1446,0.1447,0.1448,0.1448,0,0.0765,0.0811,0.0879,0.0975,0.1002,0.1076,0.1172,0.1229,0.133,0.1396,0.1473,0.1516,0.154,0.1527,0.1518,0.1513,0.1494,0.1463,0.1463,0.1341,0.1289,0.1382,0.1458,0.1457,0.1457,0.1456,0.1455,0,0.0745,0.0837,0.0894,0.0928,0.1044,0.1126,0.1204,0.1302,0.1354,0.1478,0.1539,0.1596,0.165,0.1626,0.1564,0.1569,0.1536,0.1527,0.1404,0.1398,0.1469,0.1463,0.1525,0.1525,0.1525,0.1525,0.1525,0,0.0729,0.0795,0.0928,0.0981,0.1116,0.1192,0.1326,0.1412,0.151,0.1553,0.1627,0.1619,0.1679,0.1652,0.16,0.1508,0.1569,0.1423,0.1397,0.149,0.1485,0.1474,0.1468,0.1527,0.1527,0.1526,0.1526,0,0.0696,0.0769,0.0872,0.1041,0.1119,0.1235,0.1398,0.1448,0.1572,0.1617,0.1657,0.1681,0.1627,0.1632,0.1585,0.1545,0.1462,0.1408,0.1524,0.1503,0.1337,0.1333,0.1332,0.1328,0.1325,0.1322,0.132,0,0.0677,0.0724,0.0926,0.1004,0.111,0.1271,0.1348,0.1487,0.1493,0.1572,0.1552,0.1574,0.1556,0.1405,0.1417,0.1369,0.1329,0.1359,0.1346,0.1339,0.1316,0.1316,0.1316,0.1314,0.1314,0.1313,0.1312,0,0.0638,0.0729,0.0819,0.0982,0.1107,0.118,0.1301,0.1285,0.1377,0.1514,0.1408,0.1386,0.1329,0.128,0.1275,0.1209,0.1386,0.1325,0.1333,0.1321,0.1318,0.1298,0.1302,0.13,0.1302,0.1303,0.1304,0,0.0624,0.0662,0.0783,0.0921,0.1064,0.1053,0.1107,0.11,0.1141,0.1241,0.1173,0.1169,0.1249,0.1187,0.1123,0.1117,0.1119,0.114,0.1158,0.1171,0.1092,0.1064,0.095,0,0,0,0,0,0.0582,0.0585,0.0688,0.08,0.0929,0.0995,0.105,0.1061,0.1146,0.1045,0.1124,0.1039,0.1004,0.0981,0.094,0.105,0.1116,0.1005,0.1147,0.1237,0.1251,0.1172,0,0,0,0,0,0,0.0531,0.0607,0.0633,0.0684,0.0735,0.0803,0.0818,0.084,0.0783,0.0896,0.0839,0.103,0.0955,0.1012,0.0932,0.0946,0.1028,0.1061,0.106,0.123,0.1242,0.1253,0.1176,0,0,0,0,0]},{"header":{"parameterUnit":"m.s-1","parameterCategory":2,"la1":30.2991,"la2":30.254,"lo1":-89.0895,"lo2":-89.0444,"dy":0.0017,"dx":0.0017,"nx":28,"ny":28,"refTime":"2024-06-30T09:00:00:Z","depth":"4","parameterNumber":3,"parameterNumberName":"V-component_of_CURRENTS"},"data":[0,0,0,0,0,0,0,0,0,0,0,0,0,0,0,0,0,0,0,0,0,0,0,0,0,0,0,0,0,0,0,0,0,0,0,0,0,0,0,0,0,0,0,0,0,0,0,0,0,0,0,0,0,0,0,0,0,0,-0.0314,-0.0314,0,-0.0313,-0.0312,-0.0312,-0.0371,-0.0373,-0.0374,-0.0376,-0.0476,-0.0477,-0.0478,0,0,0,0,0,0,0,0,0,0,0,0,0,-0.0302,-0.0302,-0.0314,-0.0314,-0.0314,-0.0313,-0.0312,-0.0312,-0.037,-0.0373,-0.0375,-0.0377,-0.0476,-0.0477,-0.0478,0,0,0,0,0,0,0,0,0,0,0,0,0,-0.0302,-0.0302,-0.0314,-0.0346,-0.0349,-0.0313,-0.0312,-0.0312,-0.037,-0.0373,-0.0376,-0.0378,-0.0476,-0.0477,-0.0478,-0.0431,0,0,-0.0483,-0.0483,0,0,0,0,0,0,0,0,-0.0302,-0.0302,-0.0341,-0.0344,-0.0347,-0.0348,-0.0345,-0.0358,-0.0369,-0.0358,-0.0376,-0.038,-0.0443,-0.0447,-0.0434,-0.0436,-0.044,-0.0483,-0.0484,-0.0484,-0.0485,0,0,0,0,0,0,0,-0.0302,-0.0302,-0.031,-0.0341,-0.0345,-0.0338,-0.0341,-0.0347,-0.0384,-0.036,-0.0365,-0.0369,-0.0445,-0.0433,-0.0438,-0.0442,-0.0483,-0.0484,-0.0485,-0.0485,-0.061,-0.0613,0,0,0,0,0,0,-0.0309,-0.0302,-0.031,-0.031,-0.0334,-0.0337,-0.034,-0.0342,-0.0382,-0.0391,-0.0366,-0.0372,-0.0429,-0.0436,-0.0442,-0.0537,-0.0484,-0.0486,-0.0486,-0.0608,-0.0611,-0.0614,0,0,0,0,0,0,-0.0308,-0.0309,-0.031,-0.0309,-0.0309,-0.0335,-0.0336,-0.034,-0.037,-0.0387,-0.0398,-0.0397,-0.0432,-0.044,-0.0493,-0.0536,-0.0486,-0.0488,-0.0605,-0.0609,-0.0612,-0.0633,0,0,0,0,0,0,-0.0308,-0.0309,-0.0317,-0.0309,-0.031,-0.0324,-0.0333,-0.0339,-0.0368,-0.0375,-0.0416,-0.0425,-0.0434,-0.0491,-0.0495,-0.0537,-0.0489,-0.0602,-0.0607,-0.0611,-0.0629,-0.0637,-0.0644,0,0,0,0,0,-0.0307,-0.0306,-0.0317,-0.0319,-0.0319,-0.0326,-0.0326,-0.035,-0.0367,-0.0386,-0.042,-0.0426,-0.0525,-0.0493,-0.0497,-0.0541,-0.06,-0.0605,-0.0611,-0.0626,-0.0636,-0.0644,0,0,0,0,0,0,-0.0307,-0.0311,-0.0325,-0.0326,-0.0344,-0.0338,-0.0348,-0.0364,-0.0398,-0.0414,-0.0436,-0.0448,-0.0525,-0.0526,-0.0491,-0.0597,-0.0571,-0.0578,-0.0582,-0.0591,-0.0598,-0.0563,-0.049,0,0,0,0,0,-0.0308,-0.0311,-0.0322,-0.0328,-0.0336,-0.0347,-0.0354,-0.0372,-0.0395,-0.0414,-0.0453,-0.0496,-0.0539,-0.0561,-0.0602,-0.063,-0.061,-0.0672,-0.0679,-0.0685,-0.0663,-0.0657,-0.066,-0.0632,-0.0632,-0.0632,0,0,-0.0313,-0.0313,-0.0319,-0.0329,-0.0338,-0.0343,-0.0359,-0.0379,-0.0393,-0.0417,-0.0471,-0.0527,-0.0559,-0.0615,-0.0649,-0.0624,-0.0691,-0.0692,-0.0696,-0.0671,-0.0663,-0.0665,-0.0666,-0.0636,-0.0635,-0.0634,0,0,-0.0311,-0.0323,-0.0325,-0.0339,-0.0359,-0.0357,-0.0374,-0.0399,-0.0428,-0.0487,-0.0515,-0.0584,-0.0658,-0.0672,-0.069,-0.0753,-0.0741,-0.0798,-0.0786,-0.0781,-0.0782,-0.0782,-0.0782,-0.0781,-0.0786,-0.0786,-0.0786,0,-0.0319,-0.0314,-0.033,-0.0336,-0.0341,-0.0369,-0.0371,-0.0391,-0.0442,-0.0468,-0.0527,-0.0646,-0.0678,-0.0709,-0.0744,-0.0766,-0.0763,-0.0744,-0.0785,-0.0785,-0.0784,-0.0783,-0.0783,-0.0788,-0.0788,-0.0788,-0.0788,0,-0.0311,-0.0319,-0.0321,-0.0331,-0.0343,-0.035,-0.0377,-0.0412,-0.0472,-0.0508,-0.0608,-0.0669,-0.0729,-0.0775,-0.0779,-0.0802,-0.0804,-0.0802,-0.0748,-0.0787,-0.0786,-0.0785,-0.079,-0.079,-0.0789,-0.0789,0,0,-0.0286,-0.031,-0.0312,-0.0318,-0.0338,-0.0343,-0.0368,-0.0394,-0.0414,-0.053,-0.0575,-0.0682,-0.0732,-0.0753,-0.0783,-0.0787,-0.0799,-0.0793,-0.0792,-0.0766,-0.0795,-0.0741,-0.0735,-0.0804,-0.0803,-0.0803,-0.0801,0,-0.0271,-0.0271,-0.0288,-0.0294,-0.029,-0.0323,-0.0346,-0.0385,-0.0439,-0.0497,-0.0587,-0.0647,-0.0714,-0.0744,-0.0771,-0.0792,-0.0794,-0.08,-0.0782,-0.0782,-0.0706,-0.0731,-0.0802,-0.08,-0.0799,-0.0799,-0.0799,0,-0.0242,-0.0244,-0.0244,-0.0267,-0.0273,-0.029,-0.0311,-0.0337,-0.0406,-0.0459,-0.0538,-0.0597,-0.0641,-0.069,-0.0744,-0.0748,-0.0766,-0.0789,-0.0789,-0.0719,-0.0725,-0.0751,-0.0796,-0.0796,-0.0797,-0.0797,-0.0797,0,-0.0186,-0.0207,-0.0201,-0.021,-0.0246,-0.0266,-0.029,-0.0341,-0.0339,-0.0409,-0.042,-0.0523,-0.0539,-0.0613,-0.0672,-0.0702,-0.0719,-0.0758,-0.0729,-0.0726,-0.0762,-0.0761,-0.0767,-0.0767,-0.0767,-0.0767,-0.0767,0,-0.0139,-0.0139,-0.0185,-0.0184,-0.019,-0.024,-0.0244,-0.0284,-0.0311,-0.0288,-0.039,-0.0383,-0.0514,-0.0544,-0.0638,-0.0673,-0.0687,-0.0716,-0.0714,-0.0779,-0.078,-0.0762,-0.0761,-0.0766,-0.0766,-0.0767,-0.0767,0,-0.0081,-0.0108,-0.0106,-0.0151,-0.0162,-0.0175,-0.0186,-0.0177,-0.0215,-0.0175,-0.0177,-0.0245,-0.0306,-0.0424,-0.051,-0.0576,-0.0643,-0.0638,-0.0687,-0.0689,-0.0673,-0.0675,-0.0633,-0.0631,-0.0629,-0.0628,-0.0626,0,-0.0053,-0.0045,-0.007,-0.0066,-0.0091,-0.0103,-0.0096,-0.0129,-0.0085,-0.0081,-0.0043,-0.0084,-0.0143,-0.0255,-0.0395,-0.0553,-0.0568,-0.0584,-0.0656,-0.0653,-0.0656,-0.066,-0.0664,-0.0624,-0.0623,-0.0623,-0.0622,0,-0.0002,-0.0016,-0.0019,0.0005,0.0008,0.003,0.0043,0.0089,0.0085,0.0083,0.0094,0.0013,-0.0047,-0.0213,-0.0301,-0.0426,-0.0582,-0.0567,-0.0573,-0.0641,-0.0642,-0.0647,-0.0653,-0.0616,-0.0617,-0.0618,-0.0618,0,0.0027,0.0038,0.0043,0.0058,0.0091,0.0134,0.0131,0.0171,0.0196,0.0208,0.0219,0.0091,0.0027,-0.014,-0.0241,-0.0345,-0.0399,-0.0432,-0.0446,-0.0455,-0.0414,-0.039,-0.0269,0,0,0,0,0,0.0053,0.0068,0.0098,0.0112,0.0162,0.0167,0.0223,0.0226,0.0253,0.0285,0.025,0.0179,0.0015,-0.0081,-0.0178,-0.0233,-0.0423,-0.0345,-0.0469,-0.0582,-0.0589,-0.0569,0,0,0,0,0,0,0.0063,0.0095,0.0105,0.0169,0.0187,0.0238,0.0261,0.0274,0.0284,0.0289,0.0185,0.0167,-0.0021,0.0055,-0.0185,-0.0216,-0.0299,-0.0428,-0.0428,-0.0578,-0.0585,-0.059,-0.0572,0,0,0,0,0]}]]